Location: Cactus School
(34.5700°N, 118.0931°W)
Time: 21:57:44
(UTC-07:00)

OTV 5 (USA 277) - Visible Passes

Search period start: 19 April 2019 00:00
Search period end: 29 April 2019 00:00
Orbit: 310 x 325 km, 54.5° (Epoch: 16 April)

Date Brightness Start Highest point End Pass type
(mag) Time Alt. Az. Time Alt. Az. Time Alt. Az.
19 Apr ? 05:44:57 10° NNW 05:47:15 25° NE 05:49:32 10° E visible
21 Apr ? 04:40:36 10° N 04:42:24 16° NE 04:44:09 10° E visible
22 Apr ? 04:54:41 10° NNW 04:57:16 45° NE 04:59:50 10° ESE visible
22 Apr ? 21:12:06 10° WSW 21:14:42 41° NW 21:14:43 41° NW visible
23 Apr ? 05:10:05 15° WNW 05:11:59 40° SW 05:14:29 10° SSE visible
23 Apr ? 21:27:51 10° WNW 21:29:35 15° NW 21:31:19 10° N visible
24 Apr ? 05:27:22 11° SW 05:27:22 11° SW 05:27:40 10° SSW visible
24 Apr ? 20:07:11 10° SW 20:09:54 83° NW 20:12:38 10° NE visible
25 Apr ? 20:22:25 10° W 20:24:43 24° NW 20:27:01 10° NNE visible
26 Apr ? 20:39:24 10° NW 20:39:41 10° NW 20:39:58 10° NNW visible
